Location: The Saddle
(36.8333°N, 80.3417°W)
Time: 07:20:45
(UTC-04:00)

Vanguard 2 Rocket - Pass Details

Date: 03 February 2023
Orbit: 555 x 3316 km, 32.9° (Epoch: 27 March)

Event Time Altitude Azimuth Distance (km) Brightness Sun altitude
Rises 09:34:01 0° 229° (SW) 4,128 10.2 21.7°
Reaches altitude 10° 09:37:49 10° 218° (SW) 2,736 9.5 22.3°
Maximum altitude 09:42:46 25° 164° (SSE) 1,454 9.3 23.0°
Drops below altitude 10° 09:46:25 10° 107° (ESE) 1,983 9.9 23.5°
Sets 09:48:43 0° 93° (E) 2,776 10.1 23.8°
